San Diego, CA

8:04 PM PDT on March 28, 2017 (GMT -0700)
San Diego International-Lindbergh

Weather History for KSAN - January, 2014

Change the Weather History Date:

Saturday, January 4, 2014

  Actual Average Record
Temperature  
Mean Temperature 61 °F 57 °F  
Max Temperature 66 °F 65 °F 86 °F (1969)
Min Temperature 56 °F 48 °F 29 °F (1949)
Degree Days  
Heating Degree Days 4 8  
Month to date heating degree days 26 35  
Since 1 July heating degree days 266 442  
Cooling Degree Days 0 0  
Month to date cooling degree days 0 0  
Year to date cooling degree days 0 0  
Growing Degree Days 10 (Base 50)    
Moisture  
Dew Point 51 °F    
Average Humidity 66    
Maximum Humidity 80    
Minimum Humidity 52    
Precipitation  
Precipitation 0.00 in 0.07 in 2.24 in (1995)
Month to date precipitation 0.00 0.27  
Year to date precipitation 0.00 0.27  
Since 1 July precipitation 2.24  
Snow  
Snow 0.00 in - - ()
Month to date snowfall 0.0  
Year to date snowfall 0.0  
Snow Depth 0.00 in    
Sea Level Pressure  
Sea Level Pressure 30.00 in    
Wind  
Wind Speed 2 mph (WSW)    
Max Wind Speed 8 mph    
Max Gust Speed 10 mph    
Visibility 7 miles    
Events      
T = Trace of Precipitation, MM = Missing Value Source: NWS Daily Summary

Daily Weather History Graph

Daily Weather History Graph

Search for Another Location

Airport or City:

Trip Planner

Search our weather history database for the weather conditions in past years. The results will help you decide how hot, cold, wet, or windy it might be!

Date:

Astronomy

Jan. 04, 2014 Rise Set
Actual Time 6:51 AM PST 4:56 PM PST
Civil Twilight 6:24 AM PST 5:23 PM PST
Nautical Twilight 5:53 AM PST 5:53 PM PST
Astronomical Twilight 5:23 AM PST 6:23 PM PST
Moon 9:13 AM PST (1/4) 9:06 PM PST (1/4)
Length of Visible Light 10h 58m
Length of Day
10h 04m
Waxing Crescent, 16% of the Moon is Illuminated
Jan 4
Waxing Crescent
Jan 7
First Quarter
Jan 15
Full
Jan 23
Last Quarter
Jan 30
New

Hourly Weather History & Observations

Time (PST) Temp. Dew Point Humidity Pressure Visibility Wind Dir Wind Speed Gust Speed Precip Events Conditions
12:51 AM 57.9 °F 52.0 °F 81% 29.99 in 4.0 mi SE 3.5 mph - N/A   Overcast
1:51 AM 57.9 °F 48.9 °F 72% 29.98 in 5.0 mi East 3.5 mph - N/A   Overcast
2:51 AM 57.0 °F 48.0 °F 72% 29.98 in 6.0 mi Calm Calm - N/A   Overcast
3:51 AM 55.9 °F 48.0 °F 75% 29.98 in 5.0 mi Calm Calm - N/A   Overcast
4:51 AM 55.9 °F 48.9 °F 77% 29.97 in 5.0 mi Calm Calm - N/A   Mostly Cloudy
5:51 AM 57.0 °F 48.9 °F 74% 29.98 in 5.0 mi Calm Calm - N/A   Mostly Cloudy
5:59 AM 57.2 °F 50.0 °F 77% 29.98 in 5.0 mi Calm Calm - N/A   Mostly Cloudy
6:51 AM 57.9 °F 50.0 °F 75% 29.98 in 6.0 mi Calm Calm - N/A   Haze
7:11 AM 57.2 °F 51.8 °F 82% 29.99 in 4.0 mi Calm Calm - N/A   Haze
7:51 AM 55.9 °F 48.0 °F 75% 30.00 in 6.0 mi Calm Calm - N/A   Haze
8:51 AM 59.0 °F 52.0 °F 78% 30.02 in 5.0 mi Calm Calm - N/A   Haze
9:51 AM 61.0 °F 50.0 °F 67% 30.03 in 5.0 mi Calm Calm - N/A   Haze
10:51 AM 64.0 °F 46.9 °F 54% 30.01 in 7.0 mi SSW 4.6 mph - N/A   Overcast
11:51 AM 66.0 °F 48.0 °F 52% 29.98 in 7.0 mi South 5.8 mph - N/A   Overcast
12:51 PM 64.0 °F 51.1 °F 63% 29.97 in 10.0 mi WSW 4.6 mph - N/A   Overcast
1:51 PM 64.9 °F 48.9 °F 56% 29.95 in 10.0 mi SW 5.8 mph - N/A   Overcast
2:25 PM 64.4 °F 51.8 °F 64% 29.96 in 10.0 mi NW 8.1 mph - N/A   Mostly Cloudy
2:51 PM 64.0 °F 53.1 °F 67% 29.96 in 10.0 mi NNW 6.9 mph - N/A   Mostly Cloudy
3:51 PM 63.0 °F 53.1 °F 70% 29.97 in 10.0 mi NW 4.6 mph - N/A   Mostly Cloudy
4:51 PM 62.1 °F 53.1 °F 72% 29.97 in 10.0 mi Calm Calm - N/A   Mostly Cloudy
5:51 PM 60.1 °F 53.1 °F 78% 29.99 in 10.0 mi WNW 3.5 mph - N/A   Mostly Cloudy
6:51 PM 60.1 °F 53.1 °F 78% 30.02 in 10.0 mi Calm Calm - N/A   Mostly Cloudy
7:24 PM 59.0 °F 53.6 °F 82% 30.02 in 10.0 mi Calm Calm - N/A   Mostly Cloudy
7:51 PM 59.0 °F 53.1 °F 81% 30.02 in 10.0 mi Calm Calm - N/A   Mostly Cloudy
8:51 PM 57.9 °F 52.0 °F 81% 30.03 in 10.0 mi Calm Calm - N/A   Mostly Cloudy
9:51 PM 57.0 °F 52.0 °F 83% 30.04 in 7.0 mi Calm Calm - N/A   Mostly Cloudy
10:51 PM 57.0 °F 51.1 °F 81% 30.04 in 7.0 mi Calm Calm - N/A   Mostly Cloudy
11:51 PM 57.0 °F 51.1 °F 81% 30.04 in 6.0 mi Calm Calm - N/A   Mostly Cloudy